Snowfall_Accumulation
0.0 0.0 0.0 0.0 0.0 0.0 0.0 0.0 0.0 0.0 0.0 0.0 0.0 0.0 0.0 0.0 0.0 0.0 0.0 0.0 0.0 1.6 0.1 0.0 0.0 0.3 2.4 2.9 4.3 2.3 1.9 0.8 0.9 0.7 0.3 0.0 0.0 0.0 0.0 0.0 0.1 0.1 0.1 0.1 0.1 0.8 0.7 0.0 0.0 0.1 0.2 0.0 0.0 0.1
0.0 0.0 0.0 0.0 0.0 0.0 0.0 0.0 0.0 0.0 0.0 0.0 0.0 0.0 0.0 0.0 0.0 0.0 0.0 0.0 0.0 0.2 1.0 0.0 0.0 0.0 0.0 0.1 3.5 3.8 1.6 1.0 0.8 0.8 0.7 1.0 0.2 0.4 0.0 0.7 0.1 0.4 0.4 0.2 0.1 0.1 0.6 0.3 0.1 0.2 0.1 0.1 0.1 0.4
0.0 0.0 0.0 0.0 0.0 0.0 0.0 0.0 0.0 0.0 0.0 0.0 0.0 0.0 0.0 0.0 0.0 0.0 0.0 0.0 0.0 3.7 1.4 0.8 0.6 0.1 0.0 0.3 0.4 5.8 3.5 1.9 2.6 1.5 2.5 1.3 1.0 0.6 0.8 1.1 1.0 0.9 0.3 1.3 0.7 0.8 0.6 0.9 0.5 0.3 0.2 0.2 0.0 0.1
0.0 0.0 0.0 0.0 0.0 0.0 0.0 0.0 0.0 0.0 0.0 0.0 0.0 0.0 0.0 0.0 0.0 0.0 0.0 0.0 0.0 6.3 8.2 2.5 0.1 0.1 0.0 0.1 1.5 2.3 3.5 3.0 3.3 1.5 1.9 1.5 1.7 1.5 2.5 1.2 1.5 1.5 0.0 1.0 1.6 0.2 1.0 1.1 0.3 0.1 0.1 0.1 0.0 0.0
0.0 0.0 0.0 0.0 0.0 0.0 0.0 0.0 0.0 0.0 0.0 0.0 0.0 0.0 0.0 0.0 0.0 0.0 0.0 0.0 0.0 0.6 9.1 5.6 1.8 0.5 0.0 0.1 1.3 2.2 2.7 2.6 2.0 1.8 1.6 1.8 2.1 2.4 3.3 1.3 2.0 1.3 1.7 1.4 1.9 1.6 1.4 0.3 0.5 0.4 0.1 0.0 0.1 0.4
0.0 0.0 0.0 0.0 0.0 0.0 0.0 0.0 0.0 0.0 0.0 0.0 0.0 0.0 0.0 0.0 0.0 0.0 3.5 0.0 0.0 0.3 8.3 7.8 3.1 0.2 0.0 0.2 1.1 1.8 1.7 1.7 1.3 1.3 2.3 2.3 2.2 3.3 3.6 1.3 1.6 1.0 1.2 2.1 1.6 0.7 1.0 1.3 0.1 0.1 0.4 0.3 0.2 0.8
0.0 0.0 0.0 0.0 0.0 0.0 0.0 0.0 0.0 0.0 0.0 0.0 0.0 0.0 0.0 0.0 0.0 0.9 3.1 1.2 0.0 0.0 6.6 5.9 3.8 0.0 0.0 0.2 1.1 1.2 0.9 1.1 1.2 2.1 2.4 1.9 1.6 1.3 2.3 2.1 1.1 0.8 1.1 1.8 0.8 0.5 0.5 0.2 0.8 0.4 0.3 0.2 0.3 0.1
0.0 0.0 0.0 0.0 0.0 0.0 0.0 0.0 0.0 0.0 0.0 0.0 0.0 0.0 0.0 0.0 0.6 2.8 2.8 1.2 1.1 4.2 4.1 4.4 3.3 1.2 0.6 1.4 1.5 1.1 1.3 0.9 1.6 1.8 1.4 0.8 0.1 0.2 1.2 1.2 0.7 0.0 0.0 0.3 0.3 0.7 1.7 0.7 0.6 0.2 0.2 0.4 0.2 0.2
0.0 0.0 0.0 0.0 0.0 0.0 0.0 0.0 0.0 0.0 0.0 0.0 0.0 0.0 2.3 3.1 3.3 3.1 1.4 2.6 3.5 2.8 4.2 3.4 2.0 2.9 2.1 1.3 1.2 0.8 0.5 0.9 1.3 1.1 1.3 0.0 0.4 0.8 1.9 1.2 0.4 0.9 1.4 1.3 0.3 0.2 0.4 0.6 0.5 0.5 0.4 0.0 0.1 0.2
0.0 0.0 0.0 0.0 0.0 0.0 0.0 0.0 0.0 0.0 0.0 0.0 3.0 5.8 8.5 3.9 1.0 1.4 3.7 3.3 3.0 2.3 1.9 1.5 1.8 2.4 2.5 2.0 1.4 1.0 0.4 0.9 1.2 1.5 0.0 0.0 1.0 1.3 1.0 1.3 1.1 0.9 0.9 0.9 0.4 0.0 0.0 0.0 0.3 0.4 0.7 0.9 1.2 1.1
0.0 0.0 0.0 0.0 0.0 0.0 0.0 0.0 0.0 0.0 0.0 5.7 8.2 9.3 7.9 2.1 3.7 3.6 4.0 1.6 1.3 1.5 1.2 0.6 0.7 1.7 2.0 1.9 1.5 1.2 0.4 0.7 1.9 1.9 0.0 0.4 0.7 0.7 0.3 0.5 0.3 0.6 0.7 0.8 1.3 1.4 1.4 1.4 1.3 0.8 0.2 0.5 0.7 0.9
0.0 0.0 0.0 0.0 0.0 0.0 0.0 0.0 0.0 0.4 6.1 5.1 7.7 7.0 6.4 5.6 4.9 3.4 2.6 1.1 1.2 1.0 1.2 0.4 0.7 1.6 1.6 1.8 1.2 0.9 0.8 1.3 1.9 1.3 0.0 0.0 0.7 0.3 0.2 0.3 0.3 0.4 0.4 0.5 0.8 0.8 0.8 0.8 1.1 1.0 1.2 1.0 0.9 1.0
0.0 0.0 0.0 0.0 0.0 0.0 0.0 0.0 0.0 0.0 4.8 10.5 11.6 10.0 6.0 4.7 3.9 2.1 0.6 1.0 1.2 2.0 1.8 1.8 1.7 1.3 0.9 1.2 1.0 0.8 0.9 1.3 1.1 0.1 0.3 0.8 0.5 0.0 0.2 0.1 0.0 0.0 0.1 0.1 0.0 0.0 0.5 0.3 0.4 0.8 0.5 0.6 0.9 0.9
0.0 0.0 0.0 0.0 0.0 0.0 0.0 0.0 0.0 2.2 8.7 15.0 12.0 9.4 4.8 3.7 1.2 1.2 1.8 2.1 3.2 2.5 2.5 2.1 1.5 0.9 0.6 0.9 0.9 0.7 1.0 0.0 0.9 0.0 0.4 0.6 0.4 0.1 0.0 0.0 0.0 0.0 0.0 0.0 0.1 0.1 0.1 0.3 0.2 0.2 0.8 0.8 0.8 0.3
0.0 0.0 0.0 0.0 0.0 0.0 0.0 0.8 4.0 8.7 14.2 15.4 11.2 7.4 4.0 1.5 1.2 2.8 3.7 3.2 3.7 3.2 2.3 1.2 0.9 0.3 0.3 0.4 0.3 0.3 0.0 0.2 0.2 0.4 0.0 0.3 0.1 0.1 0.0 0.0 0.0 0.0 0.0 0.1 0.1 0.1 0.2 0.3 0.2 0.1 0.4 0.7 1.1 0.9
0.0 0.0 0.0 0.0 0.0 1.0 3.0 7.2 11.9 14.5 15.1 13.7 9.9 4.9 3.0 3.4 5.0 5.1 4.7 4.4 3.5 2.3 1.1 0.2 0.1 0.1 0.0 0.0 0.0 0.0 0.0 0.0 0.0 0.2 0.4 0.3 0.0 0.0 0.0 0.1 0.0 0.1 0.1 0.1 0.0 0.3 0.4 0.7 0.8 0.6 0.7 0.9 1.2 1.3
0.0 0.2 0.0 0.0 2.1 5.1 9.2 13.3 15.5 14.8 14.9 9.6 4.5 3.3 4.3 5.7 6.1 5.6 4.5 3.5 2.1 0.8 0.2 0.0 0.0 0.0 0.0 0.0 0.0 0.0 0.0 0.0 0.2 0.0 0.0 0.1 0.0 0.2 0.0 0.1 0.0 0.0 0.0 0.0 0.0 0.0 0.3 0.4 0.5 0.1 0.3 0.9 0.8 0.9
0.6 0.0 0.6 2.6 7.2 10.9 13.5 13.0 13.9 14.3 9.4 5.4 4.5 5.4 5.9 5.9 5.5 4.6 3.3 1.8 0.6 0.0 0.0 0.0 0.0 0.0 0.0 0.0 0.0 0.0 0.0 0.0 0.0 0.0 0.0 0.0 0.0 0.0 0.0 0.0 0.0 0.0 0.0 0.0 0.0 0.0 0.0 0.0 0.0 0.0 0.3 0.7 0.4 0.3
2.3 4.1 1.8 4.1 7.8 10.7 12.5 11.4 9.3 8.2 5.4 5.0 6.1 6.1 5.1 4.6 3.6 2.3 1.1 0.3 0.1 0.0 0.0 0.0 0.0 0.0 0.0 0.0 0.0 0.0 0.0 0.1 0.0 0.0 0.0 0.0 0.0 0.0 0.0 0.0 0.0 0.0 0.0 0.0 0.0 0.0 0.1 0.0 0.3 0.5 0.4 0.9 0.1 0.1
1.4 6.2 8.2 7.2 8.2 12.6 12.2 10.6 3.7 4.7 4.9 4.6 5.0 4.8 4.0 3.0 1.7 0.5 0.1 0.0 0.0 0.0 0.0 0.0 0.0 0.0 0.0 0.0 0.1 0.2 0.1 0.1 0.4 0.3 0.0 0.0 0.0 0.0 0.0 0.0 0.0 0.0 0.0 0.0 0.0 0.5 0.7 0.0 0.0 0.2 0.1 0.9 0.7 0.0
11.8 13.8 9.8 8.9 11.8 11.2 9.8 7.6 4.6 4.4 4.7 3.9 4.6 3.3 2.7 1.6 0.2 0.0 0.0 0.0 0.0 0.0 0.0 0.0 0.0 0.0 0.0 0.0 0.0 0.0 0.1 0.1 0.3 0.6 0.5 0.8 1.2 0.1 0.0 0.0 0.0 0.0 0.0 0.0 0.0 0.0 0.0 0.0 0.0 0.7 0.1 0.0 0.0 0.0
12.4 9.4 11.1 10.7 11.5 9.7 8.1 6.5 3.9 3.9 2.9 4.0 3.5 2.3 1.9 0.7 0.0 0.0 0.0 0.0 0.0 0.0 0.0 0.0 0.0 0.0 0.0 0.0 0.0 0.0 0.0 0.0 0.0 0.0 0.1 0.8 0.0 0.0 0.0 0.0 0.1 0.0 0.0 0.0 0.2 0.1 0.0 0.0 0.2 1.8 0.2 0.0 0.0 0.0
8.1 8.3 8.7 9.1 8.3 6.4 6.6 4.4 4.0 3.4 2.7 3.3 2.8 1.9 1.0 0.0 0.0 0.0 0.0 0.0 0.0 0.0 0.0 0.0 0.0 0.0 0.0 0.0 0.0 0.0 0.0 0.0 0.0 0.0 0.0 0.0 0.0 0.0 0.0 0.0 0.0 0.0 0.0 0.0 0.0 0.0 0.0 0.3 0.0 0.5 0.1 0.0 0.0 0.0
6.2 7.9 8.1 6.8 5.0 4.7 3.1 3.2 3.4 3.0 2.9 2.7 2.3 1.1 0.0 0.0 0.0 0.0 0.0 0.0 0.0 0.0 0.0 0.0 0.0 0.0 0.0 0.0 0.0 0.0 0.0 0.0 0.0 0.0 0.0 0.0 0.0 0.0 0.0 0.0 0.0 0.0 0.0 0.0 0.0 0.0 0.0 0.0 0.3 0.0 0.0 0.0 0.0 0.0
7.6 8.3 6.8 4.0 2.6 2.7 3.7 3.9 3.5 2.6 2.6 2.0 0.0 0.0 0.0 0.0 0.0 0.0 0.0 0.0 0.0 0.0 0.0 0.0 0.0 0.0 0.0 0.0 0.0 0.0 0.0 0.0 0.0 0.0 0.0 0.0 0.0 0.0 0.0 0.0 0.0 0.0 0.0 0.0 0.0 0.0 0.0 0.0 0.0 0.0 0.0 0.0 0.0 0.3
6.5 5.6 3.1 2.9 3.3 3.6 4.1 4.0 3.2 2.0 0.8 0.0 0.0 0.0 0.0 0.0 0.0 0.0 0.0 0.0 0.0 0.0 0.0 0.0 0.1 0.0 0.0 0.0 0.1 0.0 0.0 0.0 0.0 0.0 0.0 0.0 0.0 0.0 0.0 0.0 0.0 0.0 0.0 0.0 0.3 0.1 0.0 0.0 0.0 0.0 0.0 0.0 1.2 2.1
5.3 4.5 3.1 3.4 2.9 3.1 2.6 2.0 0.7 0.0 0.0 0.0 0.0 0.0 0.0 0.0 0.0 0.0 0.0 0.0 0.0 0.0 0.0 0.0 0.1 0.1 0.1 0.1 0.0 0.0 0.0 0.0 0.0 0.0 0.0 0.0 0.0 0.0 0.1 0.5 0.5 0.0 1.4 1.0 0.2 0.6 1.0 0.3 0.1 0.0 0.0 0.0 0.0 0.0
4.1 4.5 4.7 4.4 2.5 0.8 0.0 0.0 0.0 0.0 0.0 0.0 0.0 0.0 0.0 0.0 0.0 0.0 0.0 0.0 0.0 0.0 0.0 0.0 0.0 0.0 0.0 0.0 0.0 0.0 0.0 0.0 0.0 0.0 0.0 0.0 0.0 0.0 0.0 0.1 0.2 1.0 1.4 0.3 1.1 1.4 0.2 0.1 0.4 0.1 0.1 0.1 0.0 0.0
4.8 4.5 2.5 1.3 0.4 0.1 0.0 0.0 0.0 0.0 0.0 0.0 0.0 0.0 0.0 0.0 0.0 0.0 0.0 0.0 0.0 0.0 0.0 0.0 0.0 0.0 0.0 0.0 0.0 0.0 0.0 0.0 0.0 0.0 0.0 0.0 0.0 0.0 0.0 0.0 0.0 0.0 0.0 0.0 0.3 1.5 2.1 3.0 2.8 3.0 0.3 0.2 0.0 0.0
3.7 1.3 0.4 0.2 0.0 0.0 0.0 0.0 0.0 0.0 0.0 0.0 0.0 0.0 0.0 0.0 0.0 0.0 0.0 0.0 0.0 0.0 0.0 0.0 0.0 0.0 0.0 0.0 0.0 0.0 0.0 0.0 0.0 0.0 0.0 0.0 0.0 0.0 0.0 0.0 0.0 0.0 0.0 0.0 0.0 0.0 0.9 0.4 0.4 0.0 0.1 0.0 0.0 0.1
0.8 0.4 0.0 0.0 0.0 0.0 0.0 0.0 0.0 0.0 0.0 0.0 0.0 0.0 0.0 0.0 0.0 0.0 0.0 0.0 0.0 0.0 0.0 0.0 0.0 0.0 0.0 0.0 0.0 0.0 0.0 0.0 0.0 0.0 0.0 0.0 0.0 0.6 0.0 0.0 0.0 0.0 0.0 0.0 0.1 0.1 0.2 0.2 0.1 0.1 0.1 0.0 0.2 0.2
0.1 0.0 0.0 0.0 0.0 0.0 0.0 0.0 0.0 0.0 0.0 0.0 0.0 0.0 0.0 0.0 0.0 0.0 0.0 0.0 0.0 0.0 0.0 0.0 0.0 0.0 0.0 0.0 0.0 0.0 0.1 0.0 0.0 0.0 0.0 0.0 0.7 0.8 0.1 0.0 0.0 0.0 0.0 0.2 0.3 0.3 0.3 0.3 0.2 0.2 0.2 0.1 0.1 0.1
0.0 0.0 0.0 0.0 0.0 0.0 0.0 0.0 0.0 0.0 0.0 0.0 0.0 0.0 0.0 0.0 0.0 0.0 0.0 0.0 0.0 0.0 0.0 0.0 0.0 0.0 0.0 0.0 0.0 0.0 0.0 0.0 0.0 0.5 1.0 1.2 1.9 3.1 1.6 0.1 0.1 0.2 0.2 0.7 0.7 0.6 0.5 0.5 0.5 0.4 0.4 0.3 0.2 0.2